Upstream stations:
Downstream station:
SHEF ID: BFFO2 Cimarron River near Buffalo, OK
STATION TYPE:
Regulating: Stage = 6.00, Flow = 750
PRECIP STAGE RIV-FLOW BAT-LOAD
in ft cfs volt
Ccp-Rev Ccp-Rev Ccp-Rev Ccp-Rev
(US/Central)
01/21 00:00 0.00 3.13 6 12.65
01/21 01:00 0.00 3.12 6 12.57
01/21 02:00 0.00 3.12 6 12.57
01/21 03:00 0.00 3.10 5 12.57
01/21 04:00 0.00 3.10 5 12.49
01/21 05:00 0.00 3.08 4 12.49
01/21 06:00 0.00 3.07 4 12.41
01/21 07:00 0.00 3.06 4 12.41
01/21 08:00 0.00 3.08 4 12.33
01/21 09:00 0.00 3.09 5 13.05
01/21 10:00 0.00 3.06 4 13.53
01/21 11:00 0.00 3.06 4 13.60
01/21 12:00 0.00 3.11 5 13.60
01/21 13:00 0.00 3.10 5 13.68
01/21 14:00 0.00 3.10 5 13.60
01/21 15:00 0.00 3.11 5 13.44
01/21 16:00 0.00 3.16 8 13.60
01/21 17:00 0.00 3.18 9 13.53
01/21 18:00 0.00 3.17 8 13.44
01/21 19:00 0.00 3.17 8 12.97
01/21 20:00 0.00 3.18 9 12.81
01/21 21:00 0.00 3.18 9 12.73
01/21 22:00 0.00 3.19 9 12.73
01/21 23:00 0.00 3.19 9 12.65